Time,TemperatureF,DewpointF,PressureIn,WindDirection,WindDirectionDegrees,WindSpeedMPH,WindSpeedGustMPH,Humidity,HourlyPrecipIn,Conditions,Clouds,dailyrainin,SoftwareType,DateUTC
2013-09-29 00:02:00,-999.0,-99.9,30.22,NE,46,3.0,-999.0,-999,-99.99,,,-99.99,,2013-09-29 04:02:00,
2013-09-29 00:24:00,57.0,-99.9,30.22,NE,35,3.0,-999.0,-999,-99.99,,,-99.99,,2013-09-29 04:24:00,
2013-09-29 00:34:00,57.0,-99.9,30.22,NE,35,3.0,-999.0,-999,-99.99,,,-99.99,,2013-09-29 04:34:00,
2013-09-29 00:54:00,56.0,-99.9,30.22,NNE,30,5.0,-999.0,-999,-99.99,,,-99.99,,2013-09-29 04:54:00,
2013-09-29 01:03:00,56.0,-99.9,30.22,NNE,30,5.0,-999.0,-999,-99.99,,,-99.99,,2013-09-29 05:03:00,
2013-09-29 01:53:00,56.0,-99.9,30.22,NE,46,5.0,-999.0,-999,-99.99,,,-99.99,,2013-09-29 05:53:00,
2013-09-29 02:03:00,56.0,-99.9,30.22,NE,46,5.0,-999.0,-999,-99.99,,,-99.99,,2013-09-29 06:03:00,
2013-09-29 02:22:00,55.0,-99.9,30.21,NNE,33,6.0,-999.0,-999,-99.99,,,-99.99,,2013-09-29 06:22:00,
2013-09-29 02:32:00,55.0,-99.9,30.21,NNE,33,6.0,-999.0,-999,-99.99,,,-99.99,,2013-09-29 06:32:00,
2013-09-29 02:52:00,54.0,-99.9,30.20,NNE,20,7.0,-999.0,-999,-99.99,,,-99.99,,2013-09-29 06:52:00,
2013-09-29 03:02:00,54.0,-99.9,30.20,NNE,20,7.0,-999.0,-999,-99.99,,,-99.99,,2013-09-29 07:02:00,
2013-09-29 03:22:00,53.0,-99.9,30.19,NNE,30,7.0,-999.0,-999,-99.99,,,-99.99,,2013-09-29 07:22:00,
2013-09-29 03:32:00,53.0,-99.9,30.19,NNE,30,7.0,-999.0,-999,-99.99,,,-99.99,,2013-09-29 07:32:00,
2013-09-29 03:52:00,54.0,-99.9,30.18,NNE,24,6.0,-999.0,-999,-99.99,,,-99.99,,2013-09-29 07:52:00,
2013-09-29 04:02:00,54.0,-99.9,30.18,NNE,24,6.0,-999.0,-999,-99.99,,,-99.99,,2013-09-29 08:02:00,
2013-09-29 04:22:00,54.0,-99.9,30.18,NNE,29,6.0,-999.0,-999,-99.99,,,-99.99,,2013-09-29 08:22:00,
2013-09-29 04:32:00,54.0,-99.9,30.18,NNE,29,6.0,-999.0,-999,-99.99,,,-99.99,,2013-09-29 08:32:00,
2013-09-29 04:52:00,53.0,-99.9,30.18,NE,38,7.0,-999.0,-999,-99.99,,,-99.99,,2013-09-29 08:52:00,
2013-09-29 05:02:00,53.0,-99.9,30.18,NE,38,7.0,-999.0,-999,-99.99,,,-99.99,,2013-09-29 09:02:00,
2013-09-29 05:12:00,53.0,-99.9,30.18,NE,38,7.0,-999.0,-999,-99.99,,,-99.99,,2013-09-29 09:12:00,
2013-09-29 05:54:00,51.0,-99.9,30.18,NNE,23,8.0,-999.0,-999,-99.99,,,-99.99,,2013-09-29 09:54:00,
2013-09-29 06:03:00,51.0,-99.9,30.18,NNE,23,8.0,-999.0,-999,-99.99,,,-99.99,,2013-09-29 10:03:00,
2013-09-29 06:12:00,51.0,-99.9,30.18,NNE,23,8.0,-999.0,-999,-99.99,,,-99.99,,2013-09-29 10:12:00,
2013-09-29 06:23:00,50.0,-99.9,30.18,NE,52,7.0,-999.0,-999,-99.99,,,-99.99,,2013-09-29 10:23:00,
2013-09-29 06:32:00,50.0,-99.9,30.18,NE,52,7.0,-999.0,-999,-99.99,,,-99.99,,2013-09-29 10:32:00,
2013-09-29 06:53:00,50.0,-99.9,30.18,NE,41,6.0,-999.0,-999,-99.99,,,-99.99,,2013-09-29 10:53:00,
2013-09-29 07:03:00,50.0,-99.9,30.18,NE,41,6.0,-999.0,-999,-99.99,,,-99.99,,2013-09-29 11:03:00,
2013-09-29 07:22:00,51.0,-99.9,30.18,NNE,24,7.0,-999.0,-999,-99.99,,,-99.99,,2013-09-29 11:22:00,
2013-09-29 07:33:00,51.0,-99.9,30.18,NNE,24,7.0,-999.0,-999,-99.99,,,-99.99,,2013-09-29 11:33:00,
2013-09-29 07:52:00,51.0,-99.9,30.18,NE,35,7.0,-999.0,-999,-99.99,,,-99.99,,2013-09-29 11:52:00,
2013-09-29 08:01:00,51.0,-99.9,30.18,NE,35,7.0,-999.0,-999,-99.99,,,-99.99,,2013-09-29 12:01:00,
2013-09-29 08:22:00,52.0,-99.9,30.19,NE,46,6.0,-999.0,-999,-99.99,,,-99.99,,2013-09-29 12:22:00,
2013-09-29 08:32:00,52.0,-99.9,30.19,NE,46,6.0,-999.0,-999,-99.99,,,-99.99,,2013-09-29 12:32:00,
2013-09-29 08:42:00,52.0,-99.9,30.19,NE,46,6.0,-999.0,-999,-99.99,,,-99.99,,2013-09-29 12:42:00,
2013-09-29 08:52:00,55.0,-99.9,30.19,NNE,24,5.0,-999.0,-999,-99.99,,,-99.99,,2013-09-29 12:52:00,
2013-09-29 09:02:00,55.0,-99.9,30.19,NNE,24,5.0,-999.0,-999,-99.99,,,-99.99,,2013-09-29 13:02:00,
2013-09-29 09:22:00,57.0,-99.9,30.19,East,91,7.0,-999.0,-999,-99.99,,,-99.99,,2013-09-29 13:22:00,
2013-09-29 09:32:00,57.0,-99.9,30.19,East,91,7.0,-999.0,-999,-99.99,,,-99.99,,2013-09-29 13:32:00,
2013-09-29 09:53:00,59.0,-99.9,30.20,SE,144,8.0,-999.0,-999,-99.99,,,-99.99,,2013-09-29 13:53:00,
2013-09-29 10:02:00,59.0,-99.9,30.20,SE,144,8.0,-999.0,-999,-99.99,,,-99.99,,2013-09-29 14:02:00,
2013-09-29 10:22:00,59.0,-99.9,30.19,SE,130,9.0,-999.0,-999,-99.99,,,-99.99,,2013-09-29 14:22:00,
2013-09-29 10:32:00,59.0,-99.9,30.19,SE,130,9.0,-999.0,-999,-99.99,,,-99.99,,2013-09-29 14:32:00,
2013-09-29 10:43:00,59.0,-99.9,30.19,SE,130,9.0,-999.0,-999,-99.99,,,-99.99,,2013-09-29 14:43:00,
2013-09-29 10:52:00,60.0,-99.9,30.19,SSE,153,7.0,-999.0,-999,-99.99,,,-99.99,,2013-09-29 14:52:00,
2013-09-29 11:02:00,60.0,-99.9,30.19,SSE,153,7.0,-999.0,-999,-99.99,,,-99.99,,2013-09-29 15:02:00,
2013-09-29 11:12:00,60.0,-99.9,30.19,SSE,153,7.0,-999.0,-999,-99.99,,,-99.99,,2013-09-29 15:12:00,
2013-09-29 11:22:00,61.0,-99.9,30.18,SSE,155,7.0,-999.0,-999,-99.99,,,-99.99,,2013-09-29 15:22:00,
2013-09-29 11:35:00,61.0,-99.9,30.18,SSE,155,7.0,-999.0,-999,-99.99,,,-99.99,,2013-09-29 15:35:00,
2013-09-29 11:55:00,63.0,-99.9,30.16,SE,140,8.0,-999.0,-999,-99.99,,,-99.99,,2013-09-29 15:55:00,
2013-09-29 12:05:00,63.0,-99.9,30.16,SE,140,8.0,-999.0,-999,-99.99,,,-99.99,,2013-09-29 16:05:00,
2013-09-29 12:25:00,64.0,-99.9,30.16,SSE,160,7.0,-999.0,-999,-99.99,,,-99.99,,2013-09-29 16:25:00,
2013-09-29 12:33:00,64.0,-99.9,30.16,SSE,160,7.0,-999.0,-999,-99.99,,,-99.99,,2013-09-29 16:33:00,
2013-09-29 12:54:00,65.0,-99.9,30.15,South,174,9.0,-999.0,-999,-99.99,,,-99.99,,2013-09-29 16:54:00,
2013-09-29 13:03:00,65.0,-99.9,30.15,South,174,9.0,-999.0,-999,-99.99,,,-99.99,,2013-09-29 17:03:00,
2013-09-29 13:13:00,65.0,-99.9,30.15,South,174,9.0,-999.0,-999,-99.99,,,-99.99,,2013-09-29 17:13:00,
2013-09-29 13:24:00,66.0,-99.9,30.15,SSE,162,8.0,-999.0,-999,-99.99,,,-99.99,,2013-09-29 17:24:00,
2013-09-29 13:34:00,66.0,-99.9,30.15,SSE,162,8.0,-999.0,-999,-99.99,,,-99.99,,2013-09-29 17:34:00,
2013-09-29 13:52:00,65.0,-99.9,30.13,South,189,7.0,-999.0,-999,-99.99,,,-99.99,,2013-09-29 17:52:00,
2013-09-29 14:02:00,65.0,-99.9,30.13,South,189,7.0,-999.0,-999,-99.99,,,-99.99,,2013-09-29 18:02:00,
2013-09-29 14:22:00,63.0,-99.9,30.12,SSW,212,7.0,-999.0,-999,-99.99,,,-99.99,,2013-09-29 18:22:00,
2013-09-29 14:32:00,63.0,-99.9,30.12,SSW,212,7.0,-999.0,-999,-99.99,,,-99.99,,2013-09-29 18:32:00,
2013-09-29 14:52:00,63.0,-99.9,30.12,SSW,200,5.0,-999.0,-999,-99.99,,,-99.99,,2013-09-29 18:52:00,
2013-09-29 15:02:00,63.0,-99.9,30.12,SSW,200,5.0,-999.0,-999,-99.99,,,-99.99,,2013-09-29 19:02:00,
2013-09-29 15:12:00,63.0,-99.9,30.12,SSW,200,5.0,-999.0,-999,-99.99,,,-99.99,,2013-09-29 19:12:00,
2013-09-29 15:22:00,63.0,-99.9,30.11,SSW,205,4.0,-999.0,-999,-99.99,,,-99.99,,2013-09-29 19:22:00,
2013-09-29 15:32:00,63.0,-99.9,30.11,SSW,205,4.0,-999.0,-999,-99.99,,,-99.99,,2013-09-29 19:32:00,
2013-09-29 15:52:00,63.0,-99.9,30.10,SSW,212,6.0,-999.0,-999,-99.99,,,-99.99,,2013-09-29 19:52:00,
2013-09-29 16:02:00,63.0,-99.9,30.10,SSW,212,6.0,-999.0,-999,-99.99,,,-99.99,,2013-09-29 20:02:00,
2013-09-29 16:22:00,65.0,-99.9,30.10,SSW,197,6.0,-999.0,-999,-99.99,,,-99.99,,2013-09-29 20:22:00,
2013-09-29 16:32:00,65.0,-99.9,30.10,SSW,197,6.0,-999.0,-999,-99.99,,,-99.99,,2013-09-29 20:32:00,
2013-09-29 16:52:00,68.0,-99.9,30.09,SSE,148,7.0,-999.0,-999,-99.99,,,-99.99,,2013-09-29 20:52:00,
2013-09-29 17:02:00,68.0,-99.9,30.09,SSE,148,7.0,-999.0,-999,-99.99,,,-99.99,,2013-09-29 21:02:00,
2013-09-29 17:22:00,65.0,-99.9,30.09,SE,138,7.0,-999.0,-999,-99.99,,,-99.99,,2013-09-29 21:22:00,
2013-09-29 17:34:00,65.0,-99.9,30.09,SE,138,7.0,-999.0,-999,-99.99,,,-99.99,,2013-09-29 21:34:00,
2013-09-29 17:44:00,65.0,-99.9,30.09,SE,138,7.0,-999.0,-999,-99.99,,,-99.99,,2013-09-29 21:44:00,
2013-09-29 17:55:00,65.0,-99.9,30.09,ESE,122,7.0,-999.0,-999,-99.99,,,-99.99,,2013-09-29 21:55:00,
2013-09-29 18:04:00,65.0,-99.9,30.09,ESE,122,7.0,-999.0,-999,-99.99,,,-99.99,,2013-09-29 22:04:00,
2013-09-29 18:24:00,64.0,-99.9,30.09,East,92,9.0,-999.0,-999,-99.99,,,-99.99,,2013-09-29 22:24:00,
2013-09-29 18:33:00,64.0,-99.9,30.09,East,92,9.0,-999.0,-999,-99.99,,,-99.99,,2013-09-29 22:33:00,
2013-09-29 18:53:00,62.0,-99.9,30.10,SE,125,3.0,-999.0,-999,-99.99,,,-99.99,,2013-09-29 22:53:00,
2013-09-29 19:04:00,62.0,-99.9,30.10,SE,125,3.0,-999.0,-999,-99.99,,,-99.99,,2013-09-29 23:04:00,
2013-09-29 19:23:00,61.0,-99.9,30.09,East,84,6.0,-999.0,-999,-99.99,,,-99.99,,2013-09-29 23:23:00,
2013-09-29 19:34:00,61.0,-99.9,30.09,East,84,6.0,-999.0,-999,-99.99,,,-99.99,,2013-09-29 23:34:00,
2013-09-29 19:53:00,60.0,-99.9,30.09,NE,52,6.0,-999.0,-999,-99.99,,,-99.99,,2013-09-29 23:53:00,
2013-09-29 20:02:00,60.0,-99.9,30.09,NE,52,6.0,-999.0,-999,-99.99,,,-99.99,,2013-09-30 00:02:00,
2013-09-29 20:12:00,60.0,-99.9,30.09,NE,52,6.0,-999.0,-999,-99.99,,,-99.99,,2013-09-30 00:12:00,
2013-09-29 20:22:00,60.0,-99.9,30.09,ENE,74,4.0,-999.0,-999,-99.99,,,-99.99,,2013-09-30 00:22:00,
2013-09-29 20:32:00,60.0,-99.9,30.09,ENE,74,4.0,-999.0,-999,-99.99,,,-99.99,,2013-09-30 00:32:00,
2013-09-29 20:52:00,60.0,-99.9,30.09,ESE,113,6.0,-999.0,-999,-99.99,,,-99.99,,2013-09-30 00:52:00,
2013-09-29 21:02:00,60.0,-99.9,30.09,ESE,113,6.0,-999.0,-999,-99.99,,,-99.99,,2013-09-30 01:02:00,
2013-09-29 21:22:00,60.0,-99.9,30.08,ESE,104,3.0,-999.0,-999,-99.99,,,-99.99,,2013-09-30 01:22:00,
2013-09-29 21:32:00,60.0,-99.9,30.08,ESE,104,3.0,-999.0,-999,-99.99,,,-99.99,,2013-09-30 01:32:00,
2013-09-29 21:52:00,59.0,-99.9,30.07,ENE,74,3.0,-999.0,-999,-99.99,,,-99.99,,2013-09-30 01:52:00,
2013-09-29 22:02:00,59.0,-99.9,30.07,ENE,74,3.0,-999.0,-999,-99.99,,,-99.99,,2013-09-30 02:02:00,
2013-09-29 22:12:00,59.0,-99.9,30.07,ENE,74,3.0,-999.0,-999,-99.99,,,-99.99,,2013-09-30 02:12:00,
2013-09-29 22:22:00,60.0,-99.9,30.07,ESE,120,9.0,-999.0,-999,-99.99,,,-99.99,,2013-09-30 02:22:00,
2013-09-29 22:32:00,60.0,-99.9,30.07,ESE,120,9.0,-999.0,-999,-99.99,,,-99.99,,2013-09-30 02:32:00,
2013-09-29 22:52:00,59.0,-99.9,30.07,NE,52,5.0,-999.0,-999,-99.99,,,-99.99,,2013-09-30 02:52:00,
2013-09-29 23:02:00,59.0,-99.9,30.07,NE,52,5.0,-999.0,-999,-99.99,,,-99.99,,2013-09-30 03:02:00,
2013-09-29 23:22:00,60.0,-99.9,30.08,NE,52,4.0,-999.0,-999,-99.99,,,-99.99,,2013-09-30 03:22:00,
2013-09-29 23:34:00,60.0,-99.9,30.08,NE,52,4.0,-999.0,-999,-99.99,,,-99.99,,2013-09-30 03:34:00,
2013-09-29 23:55:00,60.0,-99.9,30.07,NE,44,4.0,-999.0,-999,-99.99,,,-99.99,,2013-09-30 03:55:00,